Location: Newark
(48.3453°N, 0.5589°E)
Time: 04:39:44
(UTC+00:00)

Tiros 1 despin weight - Visible Passes

Search period start: 14 December 2019 00:00
Search period end: 24 December 2019 00:00
Orbit: 594 x 642 km, 48.2° (Epoch: 13 December)

Date Brightness Start Highest point End Pass type
(mag) Time Alt. Az. Time Alt. Az. Time Alt. Az.
14 Dec ? 04:20:51 29° E 04:20:51 29° E 04:23:16 10° E visible
14 Dec ? 05:57:55 27° W 06:00:21 88° S 06:04:50 10° E visible
15 Dec ? 04:36:50 41° E 04:36:50 41° E 04:39:52 10° E visible
15 Dec ? 06:13:54 21° W 06:16:56 89° S 06:21:25 10° E visible
16 Dec ? 04:52:45 59° E 04:52:45 59° E 04:56:26 10° E visible
16 Dec ? 06:29:49 15° W 06:33:31 81° S 06:37:58 10° ESE visible
17 Dec ? 05:08:39 85° E 05:08:39 85° E 05:13:01 10° E visible
17 Dec ? 06:45:43 11° W 06:50:02 64° SSW 06:54:27 10° ESE visible
18 Dec ? 03:47:28 14° E 03:47:28 14° E 03:48:03 10° E visible
18 Dec ? 05:24:32 67° W 05:25:06 87° SSW 05:29:36 10° E visible
18 Dec ? 07:02:11 10° W 07:06:30 45° SSW 07:10:44 10° SE visible
19 Dec ? 04:03:20 19° E 04:03:20 19° E 04:04:38 10° E visible
19 Dec ? 05:40:24 46° W 05:41:40 74° SSW 05:46:08 10° ESE visible
20 Dec ? 04:19:13 26° E 04:19:13 26° E 04:21:13 10° E visible
20 Dec ? 05:56:17 31° W 05:58:10 56° SSW 06:02:32 10° SE visible
21 Dec ? 04:35:07 35° ESE 04:35:07 35° ESE 04:37:46 10° ESE visible
21 Dec ? 06:12:10 21° W 06:14:35 38° SSW 06:18:43 10° SE visible
22 Dec ? 04:51:02 45° SE 04:51:02 45° SE 04:54:16 10° ESE visible
22 Dec ? 06:28:06 14° W 06:30:52 24° SW 06:34:29 10° SSE visible
23 Dec ? 05:07:00 44° S 05:07:00 44° S 05:10:36 10° SE visible
23 Dec ? 06:44:35 10° WSW 06:47:04 15° SW 06:49:30 10° S visible
